Powrót do katalogu

STARLINK-37349

AktywnyŁącznośćSSO
NORAD 68734·PAYLOAD·🇺🇸 United States

Wystrzelony Apr 15, 2026 z Vandenberg Space Force Base

Loading…

Następne Przeloty (najbliższe 24 godziny)

TLE

ŚwieżeSource: CelesTrak SupGP

Epoka: Sep 15, 2026, 04:04 UTC

1 68734C 26082G   26258.16993056 -.00017656  00000+0 -54792-3 0  2582
2 68734  97.2848 120.4458 0001771  93.7930 201.7930 15.33457693    18

Śledź STARLINK-37349 w czasie rzeczywistym z AllMySat

Download on the App Store